TimeEDT,TemperatureF,Dew PointF,Humidity,Sea Level PressureIn,VisibilityMPH,Wind Direction,Wind SpeedMPH,Gust SpeedMPH,PrecipitationIn,Events,Conditions,WindDirDegrees,DateUTC
12:58 AM,73.9,72.9,96,30.00,10.0,Calm,Calm,-,N/A,,Partly Cloudy,0,2013-09-09 04:58:00
1:58 AM,73.6,73.6,100,30.00,10.0,Calm,Calm,-,N/A,,Overcast,0,2013-09-09 05:58:00
2:58 AM,72.9,72.5,99,29.99,10.0,Calm,Calm,-,N/A,,Mostly Cloudy,0,2013-09-09 06:58:00
3:58 AM,73.0,72.9,99,29.99,10.0,Calm,Calm,-,N/A,,Overcast,0,2013-09-09 07:58:00
4:58 AM,73.2,73.2,100,29.99,10.0,Calm,Calm,-,N/A,,Overcast,0,2013-09-09 08:58:00
5:58 AM,74.3,72.9,95,30.00,10.0,NW,1.2,-,N/A,,Overcast,310,2013-09-09 09:58:00
6:58 AM,73.0,73.0,100,30.01,10.0,Calm,Calm,-,N/A,,Overcast,0,2013-09-09 10:58:00
7:58 AM,73.0,73.0,100,30.03,10.0,Calm,Calm,-,N/A,,Clear,0,2013-09-09 11:58:00
8:58 AM,77.5,72.9,85,30.04,10.0,Calm,Calm,-,N/A,,Clear,0,2013-09-09 12:58:00
9:58 AM,81.3,73.8,78,30.06,10.0,South,1.2,-,N/A,,Clear,180,2013-09-09 13:58:00
10:58 AM,83.7,73.4,71,30.07,10.0,Calm,Calm,-,N/A,,Clear,0,2013-09-09 14:58:00
11:58 AM,85.8,74.8,70,30.07,10.0,Calm,Calm,-,N/A,,Partly Cloudy,0,2013-09-09 15:58:00
12:58 PM,87.1,74.5,66,30.07,10.0,East,6.9,-,N/A,,Partly Cloudy,90,2013-09-09 16:58:00
1:58 PM,85.6,73.9,68,30.07,10.0,SE,5.8,-,N/A,,Mostly Cloudy,130,2013-09-09 17:58:00
2:58 PM,88.3,72.5,59,30.06,10.0,Variable,3.5,-,N/A,,Scattered Clouds,0,2013-09-09 18:58:00
3:58 PM,88.3,73.9,62,30.06,10.0,ESE,9.2,-,N/A,,Partly Cloudy,120,2013-09-09 19:58:00
4:58 PM,86.7,73.2,64,30.05,10.0,ESE,10.4,-,N/A,,Partly Cloudy,120,2013-09-09 20:58:00
5:58 PM,85.3,72.9,66,30.06,10.0,ESE,8.1,-,N/A,,Clear,120,2013-09-09 21:58:00
6:58 PM,82.8,72.7,71,30.05,10.0,ESE,6.9,-,N/A,,Clear,120,2013-09-09 22:58:00
7:58 PM,79.0,73.0,82,30.07,10.0,East,4.6,-,N/A,,Clear,90,2013-09-09 23:58:00
8:58 PM,76.3,73.4,91,30.08,10.0,Calm,Calm,-,N/A,,Clear,0,2013-09-10 00:58:00
9:58 PM,75.4,73.2,93,30.09,10.0,NE,1.2,-,N/A,,Clear,50,2013-09-10 01:58:00
10:58 PM,73.6,72.7,97,30.11,10.0,Calm,Calm,-,N/A,,Clear,0,2013-09-10 02:58:00
11:58 PM,73.4,72.9,98,30.12,10.0,ENE,2.3,-,N/A,,Clear,70,2013-09-10 03:58:00